Caldwell, NJ

5:55 AM EDT on August 26, 2016 (GMT -0400)
Essex County

Weather History for KCDW - November, 2015

Change the Weather History Date:

Monday, November 23, 2015

  Actual Average Record
Temperature  
Mean Temperature 36 °F -  
Max Temperature 43 °F 47 °F 68 °F (1960)
Min Temperature 27 °F 30 °F 14 °F (1972)
Degree Days  
Heating Degree Days 30    
Moisture  
Dew Point 16 °F    
Average Humidity 46    
Maximum Humidity 69    
Minimum Humidity 25    
Precipitation  
Precipitation 0.00 in - - ()
Sea Level Pressure  
Sea Level Pressure 30.09 in    
Wind  
Wind Speed 7 mph (NW)    
Max Wind Speed 14 mph    
Max Gust Speed 23 mph    
Visibility 10 miles    
Events      
Averages and records for this station are not official NWS values.
T = Trace of Precipitation, MM = Missing Value Source: NWS Daily Summary

Daily Weather History Graph

Daily Weather History Graph

Search for Another Location

Airport or City:

Trip Planner

Search our weather history database for the weather conditions in past years. The results will help you decide how hot, cold, wet, or windy it might be!

Date:

Astronomy

Nov. 23, 2015 Rise Set
Actual Time 6:53 AM EST 4:33 PM EST
Civil Twilight 6:23 AM EST 5:03 PM EST
Nautical Twilight 5:49 AM EST 5:36 PM EST
Astronomical Twilight 5:16 AM EST 6:09 PM EST
Moon 3:18 PM EST (11/23) 3:52 AM EST (11/23)
Length of Visible Light 10h 40m
Length of Day
9h 40m
Waxing Gibbous, 93% of the Moon is Illuminated
Nov 23
Waxing Gibbous
Nov 25
Full
Dec 3
Last Quarter
Dec 11
New
Dec 18
First Quarter

Hourly Weather History & Observations

Time (EST) Temp. Windchill Dew Point Humidity Pressure Visibility Wind Dir Wind Speed Gust Speed Precip Events Conditions
12:53 AM 39.0 °F 32.3 °F 21.0 °F 49% 29.94 in 10.0 mi NNW 10.4 mph 18.4 mph N/A   Clear
1:53 AM 37.0 °F 31.6 °F 19.0 °F 48% 29.96 in 10.0 mi Variable 6.9 mph - N/A   Clear
2:53 AM 37.0 °F 33.3 °F 16.0 °F 42% 29.97 in 10.0 mi Variable 4.6 mph - N/A   Clear
3:53 AM 35.1 °F 30.1 °F 15.1 °F 44% 29.99 in 10.0 mi Variable 5.8 mph - N/A   Clear
4:53 AM 34.0 °F 29.8 °F 16.0 °F 48% 30.00 in 10.0 mi NNW 4.6 mph - N/A   Clear
5:53 AM 33.1 °F 27.7 °F 18.0 °F 54% 30.01 in 10.0 mi NW 5.8 mph - N/A   Clear
6:53 AM 33.1 °F 27.7 °F 19.9 °F 59% 30.03 in 10.0 mi WNW 5.8 mph - N/A   Clear
7:53 AM 34.0 °F 28.8 °F 21.0 °F 59% 30.05 in 10.0 mi NW 5.8 mph - N/A   Clear
8:53 AM 37.0 °F 29.8 °F 21.0 °F 52% 30.06 in 10.0 mi NNW 10.4 mph 16.1 mph N/A   Clear
9:53 AM 39.0 °F 31.0 °F 19.0 °F 45% 30.06 in 10.0 mi NW 13.8 mph 19.6 mph N/A   Clear
10:53 AM 41.0 °F 34.7 °F 18.0 °F 40% 30.06 in 10.0 mi NW 10.4 mph - N/A   Scattered Clouds
11:53 AM 41.0 °F 35.2 °F 16.0 °F 36% 30.05 in 10.0 mi NNW 9.2 mph - N/A   Scattered Clouds
12:53 PM 42.1 °F 36.1 °F 12.0 °F 29% 30.05 in 10.0 mi North 10.4 mph 21.9 mph N/A   Scattered Clouds
1:53 PM 43.0 °F 38.2 °F 9.0 °F 25% 30.04 in 10.0 mi NW 8.1 mph - N/A   Clear
2:53 PM 42.1 °F 34.9 °F 10.0 °F 27% 30.06 in 10.0 mi NW 13.8 mph 23.0 mph N/A   Clear
3:53 PM 39.9 °F 33.9 °F 14.0 °F 35% 30.09 in 10.0 mi NW 9.2 mph 23.0 mph N/A   Clear
4:53 PM 37.0 °F 29.3 °F 12.9 °F 37% 30.13 in 10.0 mi NW 11.5 mph - N/A   Clear
5:53 PM 36.0 °F 29.6 °F 12.0 °F 37% 30.17 in 10.0 mi NW 8.1 mph - N/A   Clear
6:53 PM 35.1 °F 29.3 °F 14.0 °F 42% 30.20 in 10.0 mi NW 6.9 mph - N/A   Clear
7:53 PM 33.1 °F - 16.0 °F 50% 30.22 in 10.0 mi Calm Calm - N/A   Clear
8:53 PM 30.9 °F - 16.0 °F 54% 30.23 in 10.0 mi Calm Calm - N/A   Clear
9:53 PM 30.0 °F 26.5 °F 17.1 °F 59% 30.25 in 10.0 mi West 3.5 mph - N/A   Clear
10:53 PM 28.0 °F - 18.0 °F 66% 30.26 in 10.0 mi Calm Calm - N/A   Clear
11:53 PM 27.0 °F - 18.0 °F 69% 30.27 in 10.0 mi Calm Calm - N/A   Clear